timestamp,surface_pressure_avg,surface_temp_avg,battery_voltage,lat,long
2018-10-26 00:00:00+00:00,369.6198,9.95,12.97,47.84626,-54.09684
2018-10-26 00:10:00+00:00,356.2029,9.9,12.89,47.84626,-54.09684
2018-10-26 00:20:00+00:00,363.9679,9.9,12.97,47.84626,-54.09684
2018-10-26 00:30:00+00:00,374.9012,9.9,12.97,47.84626,-54.09684
2018-10-26 00:40:00+00:00,356.778,9.9,12.97,47.84626,-54.09684
2018-10-26 00:50:00+00:00,348.9062,9.9,12.97,47.84626,-54.09684
2018-10-26 01:00:00+00:00,367.4563,9.9,12.97,47.84626,-54.09684
2018-10-26 01:10:00+00:00,363.8412,9.9,12.89,47.84626,-54.09684
2018-10-26 01:20:00+00:00,346.8979,9.9,12.97,47.84626,-54.09684
2018-10-26 01:30:00+00:00,347.9512,9.9,12.97,47.84626,-54.09684
2018-10-26 01:40:00+00:00,351.4147,9.9,12.97,47.84626,-54.09684
2018-10-26 01:50:00+00:00,337.6763,9.9,12.97,47.84626,-54.09684
2018-10-26 02:00:00+00:00,328.458,9.88,12.97,47.84626,-54.09684
2018-10-26 02:10:00+00:00,329.013,9.9,12.89,47.84626,-54.09684
2018-10-26 02:20:00+00:00,319.298,9.82,12.97,47.84626,-54.09684
2018-10-26 02:30:00+00:00,313.2713,9.84,12.97,47.84626,-54.09684
2018-10-26 02:40:00+00:00,308.3013,9.9,12.97,47.84626,-54.09684
2018-10-26 02:50:00+00:00,299.673,9.9,12.97,47.84626,-54.09684
2018-10-26 03:00:00+00:00,289.993,9.9,12.89,47.84626,-54.09684
2018-10-26 03:10:00+00:00,281.6147,9.9,12.89,47.84626,-54.09684
2018-10-26 03:20:00+00:00,272.5747,9.9,12.97,47.84626,-54.09684
2018-10-26 03:30:00+00:00,265.8881,9.9,12.97,47.84626,-54.09684
2018-10-26 03:40:00+00:00,257.5731,9.9,12.97,47.84626,-54.09684
2018-10-26 03:50:00+00:00,247.8681,9.9,12.97,47.84626,-54.09684
2018-10-26 04:00:00+00:00,234.6947,9.86,12.89,47.84626,-54.09684
2018-10-26 04:10:00+00:00,223.9948,9.88,12.81,47.84626,-54.09684
2018-10-26 04:20:00+00:00,226.7181,9.89,12.97,47.84626,-54.09684
2018-10-26 04:30:00+00:00,232.058,9.9,12.97,47.84626,-54.09684
2018-10-26 04:40:00+00:00,223.0865,9.89,12.97,47.84626,-54.09684
2018-10-26 04:50:00+00:00,213.2998,9.8,12.97,47.84626,-54.09684
2018-10-26 05:00:00+00:00,210.1331,9.9,12.89,47.84626,-54.09684
2018-10-26 05:10:00+00:00,202.9214,9.8,12.81,47.84626,-54.09684
2018-10-26 05:20:00+00:00,204.5315,9.8,12.89,47.84626,-54.09684
2018-10-26 05:30:00+00:00,204.4448,9.87,12.97,47.84626,-54.09684
2018-10-26 05:40:00+00:00,195.3281,9.8,12.97,47.84626,-54.09684
2018-10-26 05:50:00+00:00,195.1314,9.8,12.97,47.84626,-54.09684
2018-10-26 06:00:00+00:00,203.1448,9.82,12.89,47.84626,-54.09684
2018-10-26 06:10:00+00:00,203.1764,9.9,12.81,47.84626,-54.09684
2018-10-26 06:20:00+00:00,195.9514,9.87,12.89,47.84626,-54.09684
2018-10-26 06:30:00+00:00,200.1381,9.8,12.89,47.84626,-54.09684
2018-10-26 06:40:00+00:00,207.2281,9.8,12.97,47.84626,-54.09684
2018-10-26 06:50:00+00:00,203.3398,9.8,12.97,47.84626,-54.09684
2018-10-26 07:00:00+00:00,207.9198,9.86,12.89,47.84626,-54.09684
2018-10-26 07:10:00+00:00,215.6415,9.8,12.81,47.84626,-54.09684
2018-10-26 07:20:00+00:00,217.2831,9.8,12.89,47.84626,-54.09684
2018-10-26 07:30:00+00:00,221.9381,9.89,12.89,47.84626,-54.09684
2018-10-26 07:40:00+00:00,226.4297,9.9,12.97,47.84626,-54.09684
2018-10-26 07:50:00+00:00,228.7931,9.9,12.97,47.84626,-54.09684
2018-10-26 08:00:00+00:00,235.7631,9.9,12.89,47.84626,-54.09684
2018-10-26 08:10:00+00:00,243.7681,9.94,12.81,47.84626,-54.09684
2018-10-26 08:20:00+00:00,249.1931,10.0,12.89,47.84626,-54.09684
2018-10-26 08:30:00+00:00,252.5297,9.99,12.89,47.84626,-54.09684
2018-10-26 08:40:00+00:00,258.7415,9.9,12.97,47.84626,-54.09684
2018-10-26 08:50:00+00:00,263.5164,9.9,12.97,47.84626,-54.09684
2018-10-26 09:00:00+00:00,272.2731,9.87,12.89,47.84626,-54.09684
2018-10-26 09:10:00+00:00,277.9197,9.8,12.81,47.84626,-54.09684
2018-10-26 09:20:00+00:00,281.3214,9.7,12.89,47.84626,-54.09684
2018-10-26 09:30:00+00:00,284.7581,9.7,12.89,47.84626,-54.09684
2018-10-26 09:40:00+00:00,293.4681,9.81,12.89,47.84626,-54.09684
2018-10-26 09:50:00+00:00,297.7964,9.9,12.89,47.84626,-54.09684
2018-10-26 10:00:00+00:00,300.8264,9.77,12.89,47.84626,-54.09684
2018-10-26 10:10:00+00:00,308.4747,9.7,12.81,47.84626,-54.09684
2018-10-26 10:20:00+00:00,319.103,9.8,12.89,47.84626,-54.09684
2018-10-26 10:30:00+00:00,325.0814,9.8,12.89,47.84626,-54.09684
2018-10-26 10:40:00+00:00,334.8314,9.7,12.97,47.84626,-54.09684
2018-10-26 10:50:00+00:00,346.0113,9.76,12.97,47.84626,-54.09684
2018-10-26 11:00:00+00:00,356.1296,9.8,12.97,47.84626,-54.09684
2018-10-26 11:10:00+00:00,362.1429,9.8,13.13,47.84626,-54.09684
2018-10-26 11:20:00+00:00,370.4379,9.8,13.44,47.84626,-54.09684
2018-10-26 11:30:00+00:00,381.358,9.79,13.53,47.84626,-54.09684
2018-10-26 11:40:00+00:00,387.6979,9.74,14.0,47.84626,-54.09684
2018-10-26 11:50:00+00:00,390.8513,9.7,14.56,47.84626,-54.09684
2018-10-26 12:00:00+00:00,394.4413,9.7,15.2,47.84626,-54.09684
2018-10-26 12:10:00+00:00,397.7896,9.7,14.4,47.84626,-54.09684
2018-10-26 12:20:00+00:00,398.3962,9.64,14.64,47.84626,-54.09684
2018-10-26 12:30:00+00:00,398.2513,9.6,14.64,47.84626,-54.09684
2018-10-26 12:40:00+00:00,397.2262,9.59,14.56,47.84626,-54.09684
2018-10-26 12:50:00+00:00,396.4445,9.6,14.48,47.84626,-54.09684
2018-10-26 13:00:00+00:00,397.2913,9.6,15.27,47.84626,-54.09684
2018-10-26 13:10:00+00:00,396.0313,9.6,16.39,47.84626,-54.09684
2018-10-26 13:20:00+00:00,386.8162,9.6,16.23,47.84626,-54.09684
2018-10-26 13:30:00+00:00,383.4212,9.6,15.35,47.84626,-54.09684
2018-10-26 13:40:00+00:00,383.7096,9.6,14.96,47.84626,-54.09684
2018-10-26 13:50:00+00:00,376.3079,9.6,14.64,47.84626,-54.09684
2018-10-26 14:00:00+00:00,367.098,9.59,14.56,47.84626,-54.09684
2018-10-26 14:10:00+00:00,364.5712,9.59,14.88,47.84626,-54.09684
2018-10-26 14:20:00+00:00,363.5129,9.58,14.64,47.84626,-54.09684
2018-10-26 14:30:00+00:00,355.9363,9.57,14.48,47.84626,-54.09684
2018-10-26 14:40:00+00:00,349.188,9.55,14.48,47.84626,-54.09684
2018-10-26 14:50:00+00:00,342.3947,9.56,14.32,47.84626,-54.09684
2018-10-26 15:00:00+00:00,333.0946,9.54,14.24,47.84626,-54.09684
2018-10-26 15:10:00+00:00,320.0914,9.52,14.24,47.84626,-54.09684
2018-10-26 15:20:00+00:00,311.9496,9.52,14.24,47.84626,-54.09684
2018-10-26 15:30:00+00:00,305.608,9.52,14.16,47.84626,-54.09684
2018-10-26 15:40:00+00:00,294.3214,9.51,14.24,47.84626,-54.09684
2018-10-26 15:50:00+00:00,278.5264,9.54,14.64,47.84626,-54.09684
2018-10-26 16:00:00+00:00,272.6364,9.53,14.64,47.84626,-54.09684
2018-10-26 16:10:00+00:00,265.8497,9.53,14.48,47.84626,-54.09684
2018-10-26 16:20:00+00:00,254.7248,9.54,14.56,47.84626,-54.09684
2018-10-26 16:30:00+00:00,241.8831,9.55,14.56,47.84626,-54.09684
2018-10-26 16:40:00+00:00,232.1664,9.56,14.72,47.84626,-54.09684
2018-10-26 16:50:00+00:00,224.6331,9.56,14.88,47.84626,-54.09684
2018-10-26 17:00:00+00:00,218.7598,9.57,14.64,47.84626,-54.09684
2018-10-26 17:10:00+00:00,208.9464,9.58,14.64,47.84626,-54.09684
2018-10-26 17:20:00+00:00,198.7831,9.58,14.72,47.84626,-54.09684
2018-10-26 17:30:00+00:00,195.7331,9.59,14.72,47.84626,-54.09684
2018-10-26 17:40:00+00:00,195.8948,9.6,14.48,47.84626,-54.09684
2018-10-26 17:50:00+00:00,192.3848,9.6,14.32,47.84626,-54.09684
2018-10-26 18:00:00+00:00,188.8448,9.6,14.16,47.84626,-54.09684
2018-10-26 18:10:00+00:00,188.2464,9.59,14.16,47.84626,-54.09684
2018-10-26 18:20:00+00:00,189.5131,9.59,14.32,47.84626,-54.09684
2018-10-26 18:30:00+00:00,189.2398,9.59,14.24,47.84626,-54.09684
2018-10-26 18:40:00+00:00,186.8114,9.59,14.16,47.84626,-54.09684
2018-10-26 18:50:00+00:00,192.0031,9.59,14.08,47.84626,-54.09684
2018-10-26 19:00:00+00:00,197.7215,9.6,14.0,47.84626,-54.09684
2018-10-26 19:10:00+00:00,193.2714,9.6,13.84,47.84626,-54.09684
2018-10-26 19:20:00+00:00,192.4932,9.6,13.84,47.84626,-54.09684
2018-10-26 19:30:00+00:00,200.8315,9.6,13.84,47.84626,-54.09684
2018-10-26 19:40:00+00:00,209.1031,9.6,13.76,47.84626,-54.09684
2018-10-26 19:50:00+00:00,210.5164,9.6,13.76,47.84626,-54.09684
2018-10-26 20:00:00+00:00,213.5515,9.6,13.6,47.84626,-54.09684
2018-10-26 20:10:00+00:00,220.7765,9.6,13.44,47.84626,-54.09684
2018-10-26 20:20:00+00:00,225.8031,9.6,13.44,47.84626,-54.09684
2018-10-26 20:30:00+00:00,228.2647,9.6,13.37,47.84626,-54.09684
2018-10-26 20:40:00+00:00,235.9814,9.6,13.37,47.84626,-54.09684
2018-10-26 20:50:00+00:00,243.4648,9.6,13.37,47.84626,-54.09684
2018-10-26 21:00:00+00:00,247.7615,9.6,13.29,47.84626,-54.09684
2018-10-26 21:10:00+00:00,251.358,9.6,13.13,47.84626,-54.09684
2018-10-26 21:20:00+00:00,259.8447,9.6,13.21,47.84626,-54.09684
2018-10-26 21:30:00+00:00,270.0998,9.6,13.21,47.84626,-54.09684
2018-10-26 21:40:00+00:00,272.4364,9.6,13.21,47.84626,-54.09684
2018-10-26 21:50:00+00:00,274.173,9.6,13.21,47.84626,-54.09684
2018-10-26 22:00:00+00:00,281.5314,9.6,13.13,47.84626,-54.09684
2018-10-26 22:10:00+00:00,286.9597,9.6,13.05,47.84626,-54.09684
2018-10-26 22:20:00+00:00,291.563,9.6,13.13,47.84626,-54.09684
2018-10-26 22:30:00+00:00,297.4663,9.6,13.13,47.84626,-54.09684
2018-10-26 22:40:00+00:00,306.0013,9.6,13.13,47.84626,-54.09684
2018-10-26 22:50:00+00:00,315.6996,9.6,13.13,47.84626,-54.09684
2018-10-26 23:00:00+00:00,325.8646,9.59,13.05,47.84626,-54.09684
2018-10-26 23:10:00+00:00,329.0763,9.55,12.97,47.84626,-54.09684
2018-10-26 23:20:00+00:00,332.088,9.5,13.05,47.84626,-54.09684
2018-10-26 23:30:00+00:00,341.6429,9.5,13.05,47.84626,-54.09684
2018-10-26 23:40:00+00:00,347.5113,9.5,13.13,47.84626,-54.09684
2018-10-26 23:50:00+00:00,350.6829,9.49,13.13,47.84626,-54.09684
